Location: Garden of he Gods Recreation Area
(37.6010°N, 88.3780°W)
Time: 12:09:01
(UTC-05:00)

N. Korean satellite - Visible Passes

Search period start: 24 March 2019 00:00
Search period end: 03 April 2019 00:00
Orbit: 456 x 510 km, 97.2° (Epoch: 23 March)

Date Brightness Start Highest point End Pass type
(mag) Time Alt. Az. Time Alt. Az. Time Alt. Az.
25 Mar 9.6 06:19:24 10° NE 06:22:12 21° E 06:25:02 10° SSE visible
26 Mar 10.5 05:56:39 10° E 05:57:14 10° E 05:57:48 10° E visible
29 Mar 9.8 06:13:42 10° NE 06:16:17 18° E 06:18:54 10° SE visible
02 Apr 9.9 06:08:00 10° NE 06:10:19 16° E 06:12:39 10° SE visible
